Year,Month,Day,Hour,Minute,Value (Times are PST for temperature in C)
2015,06,10,11,30,17.90
2015,06,10,11,35,17.90
2015,06,10,11,36,18.00
2015,06,10,11,37,18.10
2015,06,10,11,38,18.10
2015,06,10,11,39,18.20
2015,06,10,11,40,18.20
2015,06,10,11,41,18.20
2015,06,10,11,42,18.20
2015,06,10,11,43,18.20
2015,06,10,11,44,18.10
2015,06,10,11,45,18.20
2015,06,10,11,46,18.30
2015,06,10,11,47,18.40
2015,06,10,11,48,18.40
2015,06,10,11,49,18.50
2015,06,10,11,50,18.50
2015,06,10,11,51,18.60
2015,06,10,11,52,18.60
2015,06,10,11,53,18.60
2015,06,10,11,54,18.70
2015,06,10,11,55,18.70
2015,06,10,11,56,18.80
2015,06,10,11,57,18.90
2015,06,10,11,58,18.90
2015,06,10,11,59,18.80
2015,06,10,12,00,18.80
2015,06,10,12,01,18.80
2015,06,10,12,02,18.70
2015,06,10,12,03,18.70
2015,06,10,12,04,18.60
2015,06,10,12,05,18.50
2015,06,10,12,06,18.40
2015,06,10,12,07,18.40
2015,06,10,12,08,18.40
2015,06,10,12,09,18.40
2015,06,10,12,10,18.40
2015,06,10,12,11,18.50
2015,06,10,12,12,18.60
2015,06,10,12,13,18.60
2015,06,10,12,14,18.60
2015,06,10,12,15,18.70
2015,06,10,12,16,18.70
2015,06,10,12,17,18.70
2015,06,10,12,18,18.80
2015,06,10,12,19,18.90
2015,06,10,12,20,18.90
2015,06,10,12,21,18.90
2015,06,10,12,22,19.00
2015,06,10,12,23,19.00
2015,06,10,12,24,18.90
2015,06,10,12,25,18.90
2015,06,10,12,26,18.90
2015,06,10,12,27,18.90
2015,06,10,12,28,19.00
2015,06,10,12,29,19.10
2015,06,10,12,30,19.10
2015,06,10,12,31,19.10
2015,06,10,12,32,19.20
2015,06,10,12,33,19.20
2015,06,10,12,34,19.10
2015,06,10,12,35,19.00
2015,06,10,12,36,19.00
2015,06,10,12,37,19.10
2015,06,10,12,38,19.00
2015,06,10,12,39,18.90
2015,06,10,12,40,19.00
2015,06,10,12,41,19.10
2015,06,10,12,42,19.00
2015,06,10,12,43,18.90
2015,06,10,12,44,18.90
2015,06,10,12,45,18.90
2015,06,10,12,46,18.90
2015,06,10,12,47,18.90
2015,06,10,12,48,18.90
2015,06,10,12,49,19.00
2015,06,10,12,50,19.00
2015,06,10,12,51,19.10
2015,06,10,12,52,19.10
2015,06,10,12,53,19.10
2015,06,10,12,54,19.00
2015,06,10,12,55,18.90
2015,06,10,12,56,18.90
2015,06,10,12,57,19.00
2015,06,10,12,58,19.10
2015,06,10,12,59,19.10
2015,06,10,13,00,19.10
2015,06,10,13,01,19.10
2015,06,10,13,02,19.10
2015,06,10,13,03,19.10
2015,06,10,13,04,19.20
2015,06,10,13,05,19.20
2015,06,10,13,06,19.20
2015,06,10,13,07,19.10
2015,06,10,13,08,19.10
2015,06,10,13,09,19.00
2015,06,10,13,10,18.90
2015,06,10,13,11,18.90
2015,06,10,13,12,19.00
2015,06,10,13,13,19.10
2015,06,10,13,14,19.10
2015,06,10,13,15,19.20
2015,06,10,13,16,19.20
2015,06,10,13,17,19.10
2015,06,10,13,18,19.00
2015,06,10,13,19,19.10
2015,06,10,13,20,19.10
2015,06,10,13,21,19.10
2015,06,10,13,22,19.20
2015,06,10,13,23,19.20
2015,06,10,13,24,19.10
2015,06,10,13,25,19.10
2015,06,10,13,26,19.10
2015,06,10,13,27,19.10
2015,06,10,13,28,19.10
2015,06,10,13,29,19.10
2015,06,10,13,30,19.00
2015,06,10,13,31,18.90
2015,06,10,13,32,19.00
2015,06,10,13,33,19.00
2015,06,10,13,34,19.00
2015,06,10,13,35,19.10
2015,06,10,13,36,19.10
2015,06,10,13,37,19.20
2015,06,10,13,38,19.30
2015,06,10,13,39,19.40
2015,06,10,13,40,19.40
2015,06,10,13,41,19.50
2015,06,10,13,42,19.40
2015,06,10,13,43,19.40
2015,06,10,13,44,19.30
2015,06,10,13,45,19.40
2015,06,10,13,46,19.30
2015,06,10,13,47,19.20
2015,06,10,13,48,19.30
2015,06,10,13,49,19.40
2015,06,10,13,50,19.40
2015,06,10,13,51,19.50
2015,06,10,13,52,19.60
2015,06,10,13,53,19.50
2015,06,10,13,54,19.50
2015,06,10,13,55,19.50
2015,06,10,13,56,19.50
2015,06,10,13,57,19.40
2015,06,10,13,58,19.20
2015,06,10,13,59,19.10
2015,06,10,14,00,19.00
2015,06,10,14,01,18.80
2015,06,10,14,02,18.70
2015,06,10,14,03,18.60
2015,06,10,14,04,18.70
2015,06,10,14,05,18.70
2015,06,10,14,06,18.70
2015,06,10,14,07,18.70
2015,06,10,14,08,18.50
2015,06,10,14,09,18.50
2015,06,10,14,10,18.50
2015,06,10,14,11,18.50
2015,06,10,14,12,18.50
2015,06,10,14,13,18.40
2015,06,10,14,14,18.40
2015,06,10,14,15,18.40
2015,06,10,14,16,18.40
2015,06,10,14,17,18.40
2015,06,10,14,18,18.40
2015,06,10,14,19,18.40
2015,06,10,14,20,18.30
2015,06,10,14,21,18.30
2015,06,10,14,22,18.30
2015,06,10,14,23,18.30
2015,06,10,14,24,18.40
2015,06,10,14,25,18.50
2015,06,10,14,26,18.50
2015,06,10,14,27,18.60
2015,06,10,14,28,18.60
2015,06,10,14,29,18.70
2015,06,10,14,30,18.60
2015,06,10,14,31,18.40
2015,06,10,14,32,18.40
2015,06,10,14,33,18.50
2015,06,10,14,34,18.50
2015,06,10,14,35,18.60
2015,06,10,14,36,18.60
2015,06,10,14,37,18.70
2015,06,10,14,38,18.90
2015,06,10,14,39,18.90
2015,06,10,14,40,18.90
2015,06,10,14,41,19.10
2015,06,10,14,42,19.10
2015,06,10,14,43,19.10
2015,06,10,14,44,19.00
2015,06,10,14,45,18.90
2015,06,10,14,46,18.80
2015,06,10,14,47,18.70
2015,06,10,14,48,18.60
2015,06,10,14,49,18.50
2015,06,10,14,50,18.60
2015,06,10,14,51,18.80
2015,06,10,14,52,19.00
2015,06,10,14,53,19.10
2015,06,10,14,54,19.20
2015,06,10,14,55,19.30
2015,06,10,14,56,19.10
2015,06,10,14,57,19.10
2015,06,10,14,58,19.10
2015,06,10,14,59,19.10
2015,06,10,15,00,19.10
2015,06,10,15,01,19.10
2015,06,10,15,02,19.10
2015,06,10,15,03,19.10
2015,06,10,15,04,19.10
2015,06,10,15,05,18.90
2015,06,10,15,06,18.80
2015,06,10,15,07,18.70
2015,06,10,15,08,18.60
2015,06,10,15,09,18.60
2015,06,10,15,10,18.60
2015,06,10,15,11,18.60
2015,06,10,15,12,18.60
2015,06,10,15,13,18.70
2015,06,10,15,14,18.70
2015,06,10,15,15,18.90
2015,06,10,15,16,19.00
2015,06,10,15,17,19.10
2015,06,10,15,18,19.10
2015,06,10,15,19,19.10
2015,06,10,15,20,19.10
2015,06,10,15,21,19.10
2015,06,10,15,22,19.10
2015,06,10,15,23,19.00
2015,06,10,15,24,18.90
2015,06,10,15,25,18.90
2015,06,10,15,26,18.90
2015,06,10,15,27,18.80
2015,06,10,15,28,18.80
2015,06,10,15,29,18.80
2015,06,10,15,30,18.80
2015,06,10,15,31,19.00
2015,06,10,15,32,19.10
2015,06,10,15,33,19.20
2015,06,10,15,34,19.30
2015,06,10,15,35,19.40
2015,06,10,15,36,19.50
2015,06,10,15,37,19.50
2015,06,10,15,38,19.60
2015,06,10,15,39,19.80
2015,06,10,15,40,20.00
2015,06,10,15,41,20.10
2015,06,10,15,42,20.20
2015,06,10,15,43,20.20
2015,06,10,15,44,20.20
2015,06,10,15,45,20.20
2015,06,10,15,46,20.20
2015,06,10,15,47,20.10
2015,06,10,15,48,20.00
2015,06,10,15,49,19.90
2015,06,10,15,50,19.90
2015,06,10,15,51,19.90
2015,06,10,15,52,20.00
2015,06,10,15,53,20.10
2015,06,10,15,54,20.30
2015,06,10,15,55,20.40
2015,06,10,15,56,20.50
2015,06,10,15,57,20.60
2015,06,10,15,58,20.70
2015,06,10,15,59,20.90
2015,06,10,16,00,21.00
2015,06,10,16,01,21.10
2015,06,10,16,02,21.10
2015,06,10,16,03,21.10
2015,06,10,16,04,21.30
2015,06,10,16,05,21.30
2015,06,10,16,06,21.40
2015,06,10,16,07,21.40
2015,06,10,16,08,21.40
2015,06,10,16,09,21.40
2015,06,10,16,10,21.50
2015,06,10,16,11,21.60
2015,06,10,16,12,21.60
2015,06,10,16,13,21.70
2015,06,10,16,14,21.90
2015,06,10,16,15,22.00
2015,06,10,16,16,22.10
2015,06,10,16,17,22.10
2015,06,10,16,18,22.10
2015,06,10,16,19,22.10
2015,06,10,16,20,22.10
2015,06,10,16,21,22.10
2015,06,10,16,22,22.10
2015,06,10,16,23,22.30
2015,06,10,16,24,22.50
2015,06,10,16,25,22.50
2015,06,10,16,26,22.40
2015,06,10,16,27,22.30
2015,06,10,16,28,22.20
2015,06,10,16,29,22.10
2015,06,10,16,30,22.10
2015,06,10,16,31,22.00
2015,06,10,16,32,21.90
2015,06,10,16,33,21.80
2015,06,10,16,34,21.70
2015,06,10,16,35,21.70
2015,06,10,16,36,21.60
2015,06,10,16,37,21.50
2015,06,10,16,38,21.40
2015,06,10,16,39,21.40
2015,06,10,16,40,21.50
2015,06,10,16,41,21.60
2015,06,10,16,42,21.70
2015,06,10,16,43,21.80
2015,06,10,16,44,22.10
2015,06,10,16,45,22.40
2015,06,10,16,46,22.70
2015,06,10,16,47,22.90
2015,06,10,16,48,23.20
2015,06,10,16,49,23.40
2015,06,10,16,50,23.60
2015,06,10,16,51,23.70
2015,06,10,16,52,23.90
2015,06,10,16,53,24.00
2015,06,10,16,54,24.10
2015,06,10,16,55,24.20
2015,06,10,16,56,24.30
2015,06,10,16,57,24.40
2015,06,10,16,58,24.50
2015,06,10,16,59,24.50
2015,06,10,17,00,24.50
2015,06,10,17,01,24.60
2015,06,10,17,02,24.50
2015,06,10,17,03,24.50
2015,06,10,17,04,24.50
2015,06,10,17,05,24.50
2015,06,10,17,06,24.50
2015,06,10,17,07,24.50
2015,06,10,17,08,24.60
2015,06,10,17,09,24.70
2015,06,10,17,10,24.80
2015,06,10,17,11,24.90
2015,06,10,17,12,24.90
2015,06,10,17,13,25.00
2015,06,10,17,14,25.00
2015,06,10,17,15,25.00
2015,06,10,17,16,25.00
2015,06,10,17,17,24.90
2015,06,10,17,18,24.80
2015,06,10,17,19,24.70
2015,06,10,17,20,24.70
2015,06,10,17,21,24.70
2015,06,10,17,22,24.60
2015,06,10,17,23,24.70
2015,06,10,17,24,24.60
2015,06,10,17,25,24.60
2015,06,10,17,26,24.60
2015,06,10,17,27,24.70
2015,06,10,17,28,24.70
2015,06,10,17,29,24.80
2015,06,10,17,30,24.90
2015,06,10,17,31,24.90
2015,06,10,17,32,24.90
2015,06,10,17,33,24.90
2015,06,10,17,34,24.80
2015,06,10,17,35,24.80
2015,06,10,17,36,24.70
2015,06,10,17,37,24.70
2015,06,10,17,38,24.60
2015,06,10,17,39,24.60
2015,06,10,17,40,24.50
2015,06,10,17,41,24.60
2015,06,10,17,42,24.70
2015,06,10,17,43,24.80
2015,06,10,17,44,24.80
2015,06,10,17,45,24.90
2015,06,10,17,46,24.90
2015,06,10,17,47,24.90
2015,06,10,17,48,24.90
2015,06,10,17,49,24.80
2015,06,10,17,50,24.70
2015,06,10,17,51,24.60
2015,06,10,17,52,24.50
2015,06,10,17,53,24.40
2015,06,10,17,54,24.30
2015,06,10,17,55,24.20
2015,06,10,17,56,24.20
2015,06,10,17,57,24.20
2015,06,10,17,58,24.10
2015,06,10,17,59,24.00
2015,06,10,18,00,23.90
2015,06,10,18,01,23.80
2015,06,10,18,02,23.70
2015,06,10,18,03,23.70
2015,06,10,18,04,23.70
2015,06,10,18,05,23.70
2015,06,10,18,06,23.70
2015,06,10,18,07,23.60
2015,06,10,18,08,23.50
2015,06,10,18,09,23.40
2015,06,10,18,10,23.40
2015,06,10,18,11,23.40
2015,06,10,18,12,23.30
2015,06,10,18,13,23.30
2015,06,10,18,14,23.30
2015,06,10,18,15,23.30
2015,06,10,18,16,23.30
2015,06,10,18,17,23.30
2015,06,10,18,18,23.30
2015,06,10,18,19,23.20
2015,06,10,18,20,23.10
2015,06,10,18,21,22.90
2015,06,10,18,22,22.80
2015,06,10,18,23,22.60
2015,06,10,18,24,22.50
2015,06,10,18,25,22.40
2015,06,10,18,26,22.40
2015,06,10,18,27,22.30
2015,06,10,18,28,22.30
2015,06,10,18,29,22.30
2015,06,10,18,30,22.20
2015,06,10,18,31,22.10
2015,06,10,18,32,22.10
2015,06,10,18,33,22.10
2015,06,10,18,34,22.10
2015,06,10,18,35,22.10
2015,06,10,18,36,22.00
2015,06,10,18,37,22.00
2015,06,10,18,38,21.90
2015,06,10,18,39,21.90
2015,06,10,18,40,21.80
2015,06,10,18,41,21.70
2015,06,10,18,42,21.70
2015,06,10,18,43,21.60
2015,06,10,18,44,21.60
2015,06,10,18,45,21.50
2015,06,10,18,46,21.40
2015,06,10,18,47,21.30
2015,06,10,18,48,21.30
2015,06,10,18,49,21.20
2015,06,10,18,50,21.20
2015,06,10,18,51,21.10
2015,06,10,18,52,21.10
2015,06,10,18,53,21.10
2015,06,10,18,54,21.00
2015,06,10,18,55,21.00
2015,06,10,18,56,20.90
2015,06,10,18,57,20.90
2015,06,10,18,58,20.80
2015,06,10,18,59,20.70
2015,06,10,19,00,20.70
2015,06,10,19,01,20.60
2015,06,10,19,02,20.50
2015,06,10,19,03,20.50
2015,06,10,19,04,20.40
2015,06,10,19,05,20.30
2015,06,10,19,06,20.20
2015,06,10,19,07,20.20
2015,06,10,19,08,20.20
2015,06,10,19,09,20.20
2015,06,10,19,10,20.20
2015,06,10,19,11,20.20
2015,06,10,19,12,20.20
2015,06,10,19,13,20.20
2015,06,10,19,14,20.20
2015,06,10,19,15,20.20
2015,06,10,19,16,20.20
2015,06,10,19,17,20.20
2015,06,10,19,18,20.20
2015,06,10,19,19,20.20
2015,06,10,19,20,20.20
2015,06,10,19,21,20.30
2015,06,10,19,22,20.30
2015,06,10,19,23,20.20
2015,06,10,19,24,20.10
2015,06,10,19,25,20.10
2015,06,10,19,26,20.00
2015,06,10,19,27,19.90
2015,06,10,19,28,19.90
2015,06,10,19,29,19.80
2015,06,10,19,30,19.80
2015,06,10,19,31,19.70
2015,06,10,19,32,19.70
2015,06,10,19,33,19.60
2015,06,10,19,34,19.60
2015,06,10,19,35,19.60
2015,06,10,19,36,19.60
2015,06,10,19,37,19.60
2015,06,10,19,38,19.60
2015,06,10,19,39,19.60
2015,06,10,19,40,19.60
2015,06,10,19,41,19.50
2015,06,10,19,42,19.50
2015,06,10,19,43,19.50
2015,06,10,19,44,19.50
2015,06,10,19,45,19.50
2015,06,10,19,46,19.40
2015,06,10,19,47,19.40
2015,06,10,19,48,19.40
2015,06,10,19,49,19.30
2015,06,10,19,50,19.30
2015,06,10,19,51,19.20
2015,06,10,19,52,19.10
2015,06,10,19,53,19.10
2015,06,10,19,54,19.10
2015,06,10,19,55,18.90
2015,06,10,19,56,18.90
2015,06,10,19,57,18.90
2015,06,10,19,58,18.90
2015,06,10,19,59,18.90
2015,06,10,20,00,18.90
2015,06,10,20,01,18.80
2015,06,10,20,02,18.80
2015,06,10,20,03,18.80
2015,06,10,20,04,18.70
2015,06,10,20,05,18.70
2015,06,10,20,06,18.70
2015,06,10,20,07,18.60
2015,06,10,20,08,18.60
2015,06,10,20,09,18.50
2015,06,10,20,10,18.40
2015,06,10,20,11,18.40
2015,06,10,20,12,18.30
2015,06,10,20,13,18.20
2015,06,10,20,14,18.20
2015,06,10,20,15,18.20
2015,06,10,20,16,18.10
2015,06,10,20,17,18.10
2015,06,10,20,18,18.00
2015,06,10,20,19,17.90
2015,06,10,20,20,17.90
2015,06,10,20,21,17.80
2015,06,10,20,22,17.80
2015,06,10,20,23,17.70
2015,06,10,20,24,17.70
2015,06,10,20,25,17.60
2015,06,10,20,26,17.50
2015,06,10,20,27,17.50
2015,06,10,20,28,17.40
2015,06,10,20,29,17.40
2015,06,10,20,30,17.30
2015,06,10,20,31,17.30
2015,06,10,20,32,17.30
2015,06,10,20,33,17.20
2015,06,10,20,34,17.10
2015,06,10,20,35,17.00
2015,06,10,20,36,16.90
2015,06,10,20,37,16.90
2015,06,10,20,38,16.80
2015,06,10,20,39,16.70
2015,06,10,20,40,16.70
2015,06,10,20,41,16.60
2015,06,10,20,42,16.40
2015,06,10,20,43,16.40
2015,06,10,20,44,16.30
2015,06,10,20,45,16.20
2015,06,10,20,46,16.10
2015,06,10,20,47,16.10
2015,06,10,20,48,15.90
2015,06,10,20,49,15.80
2015,06,10,20,50,15.80
2015,06,10,20,51,15.70
2015,06,10,20,52,15.70
2015,06,10,20,53,15.60
2015,06,10,20,54,15.50
2015,06,10,20,55,15.50
2015,06,10,20,56,15.40
2015,06,10,20,57,15.30
2015,06,10,20,58,15.30
2015,06,10,20,59,15.30
2015,06,10,21,00,15.20
2015,06,10,21,01,15.10
2015,06,10,21,02,15.10
2015,06,10,21,03,15.00
2015,06,10,21,04,14.90
2015,06,10,21,05,14.90
2015,06,10,21,06,14.80
2015,06,10,21,07,14.80
2015,06,10,21,08,14.70
2015,06,10,21,09,14.60
2015,06,10,21,10,14.60
2015,06,10,21,11,14.50
2015,06,10,21,12,14.50
2015,06,10,21,13,14.40
2015,06,10,21,14,14.40
2015,06,10,21,15,14.30
2015,06,10,21,16,14.20
2015,06,10,21,17,14.20
2015,06,10,21,18,14.20
2015,06,10,21,19,14.10
2015,06,10,21,20,14.10
2015,06,10,21,21,14.00
2015,06,10,21,22,14.00
2015,06,10,21,23,13.90
2015,06,10,21,24,13.90
2015,06,10,21,25,13.90
2015,06,10,21,26,13.80
2015,06,10,21,27,13.80
2015,06,10,21,28,13.80
2015,06,10,21,29,13.70
2015,06,10,21,30,13.70
2015,06,10,21,31,13.70
2015,06,10,21,32,13.70
2015,06,10,21,33,13.60
2015,06,10,21,34,13.60
2015,06,10,21,35,13.60
2015,06,10,21,36,13.60
2015,06,10,21,37,13.50
2015,06,10,21,38,13.50
2015,06,10,21,39,13.50
2015,06,10,21,40,13.40
2015,06,10,21,41,13.40
2015,06,10,21,42,13.30
2015,06,10,21,43,13.30
2015,06,10,21,44,13.30
2015,06,10,21,45,13.20
2015,06,10,21,46,13.20
2015,06,10,21,47,13.10
2015,06,10,21,48,13.00
2015,06,10,21,49,13.00
2015,06,10,21,50,12.90
2015,06,10,21,51,12.90
2015,06,10,21,52,12.90
2015,06,10,21,53,12.80
2015,06,10,21,54,12.80
2015,06,10,21,55,12.80
2015,06,10,21,56,12.80
2015,06,10,21,57,12.80
2015,06,10,21,58,12.80
2015,06,10,21,59,12.70
2015,06,10,22,00,12.70
2015,06,10,22,01,12.60
2015,06,10,22,02,12.60
2015,06,10,22,03,12.60
2015,06,10,22,04,12.60
2015,06,10,22,05,12.60
2015,06,10,22,06,12.60
2015,06,10,22,07,12.50
2015,06,10,22,08,12.50
2015,06,10,22,09,12.50
2015,06,10,22,10,12.50
2015,06,10,22,11,12.50
2015,06,10,22,12,12.50
2015,06,10,22,13,12.50
2015,06,10,22,14,12.50
2015,06,10,22,15,12.50
2015,06,10,22,16,12.50
2015,06,10,22,17,12.40
2015,06,10,22,18,12.40
2015,06,10,22,19,12.40
2015,06,10,22,20,12.40
2015,06,10,22,21,12.40
2015,06,10,22,22,12.30
2015,06,10,22,23,12.30
2015,06,10,22,24,12.30
2015,06,10,22,25,12.30
2015,06,10,22,26,12.30
2015,06,10,22,27,12.30
2015,06,10,22,28,12.30
2015,06,10,22,29,12.30
2015,06,10,22,30,12.30
2015,06,10,22,31,12.30
2015,06,10,22,32,12.20
2015,06,10,22,33,12.20
2015,06,10,22,34,12.20
2015,06,10,22,35,12.10
2015,06,10,22,36,12.10
2015,06,10,22,37,12.10
2015,06,10,22,38,12.10
2015,06,10,22,39,12.00
2015,06,10,22,40,12.00
2015,06,10,22,41,12.00
2015,06,10,22,42,12.00
2015,06,10,22,43,11.90
2015,06,10,22,44,11.90
2015,06,10,22,45,11.90
2015,06,10,22,46,11.90
2015,06,10,22,47,11.90
2015,06,10,22,48,11.90
2015,06,10,22,49,11.90
2015,06,10,22,50,11.80
2015,06,10,22,51,11.80
2015,06,10,22,52,11.80
2015,06,10,22,53,11.80
2015,06,10,22,54,11.80
2015,06,10,22,55,11.80
2015,06,10,22,56,11.80
2015,06,10,22,57,11.80
2015,06,10,22,58,11.80
2015,06,10,22,59,11.80
2015,06,10,23,00,11.80
2015,06,10,23,01,11.80
2015,06,10,23,02,11.80
2015,06,10,23,03,11.80
2015,06,10,23,04,11.70
2015,06,10,23,05,11.70
2015,06,10,23,06,11.70
2015,06,10,23,07,11.70
2015,06,10,23,08,11.70
2015,06,10,23,09,11.70
2015,06,10,23,10,11.70
2015,06,10,23,11,11.70
2015,06,10,23,12,11.70
2015,06,10,23,13,11.70
2015,06,10,23,14,11.70
2015,06,10,23,15,11.60
2015,06,10,23,16,11.60
2015,06,10,23,17,11.60
2015,06,10,23,18,11.60
2015,06,10,23,19,11.60
2015,06,10,23,20,11.60
2015,06,10,23,21,11.60
2015,06,10,23,22,11.60
2015,06,10,23,23,11.60
2015,06,10,23,24,11.60
2015,06,10,23,25,11.60
2015,06,10,23,26,11.60
2015,06,10,23,27,11.60
2015,06,10,23,28,11.60
2015,06,10,23,29,11.60
2015,06,10,23,30,11.60
2015,06,10,23,31,11.60
2015,06,10,23,32,11.60
2015,06,10,23,33,11.60
2015,06,10,23,34,11.60
2015,06,10,23,35,11.60
2015,06,10,23,36,11.60
2015,06,10,23,37,11.60
2015,06,10,23,38,11.60
2015,06,10,23,39,11.60
2015,06,10,23,40,11.60
2015,06,10,23,41,11.60
2015,06,10,23,42,11.60
2015,06,10,23,43,11.60
2015,06,10,23,44,11.60
2015,06,10,23,45,11.60
2015,06,10,23,46,11.60
2015,06,10,23,47,11.60
2015,06,10,23,48,11.60
2015,06,10,23,49,11.60
2015,06,10,23,50,11.60
2015,06,10,23,51,11.60
2015,06,10,23,52,11.60
2015,06,10,23,53,11.60
2015,06,10,23,54,11.60
2015,06,10,23,55,11.60
2015,06,10,23,56,11.60
2015,06,10,23,57,11.60
2015,06,10,23,58,11.60
2015,06,10,23,59,11.60
